Location: Seattle
(47.6064°N, 122.3308°W)
Time: 22:46:26
(UTC-07:00)

S-56A Canister/Altair - Pass Details

Date: 29 July 2021
Orbit: 632 x 2500 km, 38.9° (Epoch: 23 September)

Event Time Altitude Azimuth Distance (km) Brightness Sun altitude
Rises 21:41:39 0° 279° (W) 6,182 13.3 -8.4°
Reaches altitude 10° 21:46:07 10° 273° (W) 5,130 12.6 -9.0°
Maximum altitude 21:59:04 40° 211° (SSW) 2,904 10.3 -10.6°
Enters shadow 22:08:30 13° 150° (SSE) 3,866 10.5 -11.8°
